www.pogodaiklimat.ru

Погода и климат >> Архив погоды >> Испания >> La Coruna


АРХИВ ПОГОДЫ в La Coruna

Время (UTC), дата Ветер
(напр.,м/с)
 
Видим.   Явления Облачность Т
(С)
Тd
(С)
f
(%)
Тe
(С)
Тes
(С)
Комфортность P
(гПа)
Po
(гПа)
Тmin
(С)
Tmax
(С)
R
(мм)
R24
(мм)
S
(см)
22 13.09 С 3 8000 м н/о +16.5 +15.7 95 +16 +16 по сезону 1022.3 1014.3
23 13.09 С 3 7000 м н/о +16.4 +15.9 97 +16 +16 по сезону 1022.2 1014.2
00 14.09 С 3 5000 м дымка 10/10 100 м
[St]
+16.1 +15.9 99 +16 +16 по сезону 1022.0 1014.0
02 14.09 С 4 10 км н/о +15.9 +15.4 97 +15 +15 по сезону 1021.3 1013.3
01 14.09 С 4 8000 м н/о +16.2 +15.9 98 +16 +16 по сезону 1021.5 1013.5
03 14.09 С 4 9000 м дымка 8/8 200 м
[St]
+16.2 +15.7 97 +16 +16 по сезону 1021.1 1013.1
04 14.09 С 3 8000 м н/о +16.1 +15.6 97 +16 +16 тепло 1020.6 1012.6
05 14.09 С 2 н/о н/о +16.0 +15.7 98 +16 +16 по сезону 1020.5 1012.5
06 14.09 СЗ 1 8000 м дымка 4/3 100 м
[St Ci sp]
+16.0 +15.7 98 +17 +17 тепло 1020.7 1012.7 +15.9
08 14.09 С 2 10 км н/о +16.5 +16.0 97 +17 +17 по сезону 1021.3 1013.3
07 14.09 С 3 6000 м н/о +15.9 +15.6 98 +15 +15 прохладно 1021.0 1013.0
09 14.09 С 3 12 км 5/3 300 м
[Cu Sc Ci sp]
+17.5 +16.2 92 +17 +20 по сезону 1021.5 1013.5
10 14.09 С 4 15 км н/о +17.8 +16.0 89 +18 +18 прохладно 1021.7 1013.8
11 14.09 С 5 16 км н/о +17.9 +15.9 88 +18 +18 прохладно 1021.6 1013.7
12 14.09 С 5 20 км 6/4 600 м
[Cu Sc Ci sp]
+18.2 +15.8 86 +18 +22 прохладно 1021.3 1013.4
14 14.09 С 8 20 км н/о +18.4 +15.6 84 +18 +18 прохладно 1020.8 1012.9
13 14.09 С 6 18 км н/о +18.5 +15.7 84 +19 +19 по сезону 1021.0 1013.1
15 14.09 С 8 18 км н/о +18.2 +15.8 86 +18 +18 по сезону 1020.5 1012.6
16 14.09 С 7 14 км н/о +17.7 +16.0 90 +17 +17 прохладно 1020.5 1012.6
17 14.09 С 5 12 км н/о +17.5 +15.8 90 +17 +17 по сезону 1020.4 1012.5
18 14.09 С 4 11 км н/о +17.1 +15.8 92 +17 +17 по сезону 1020.7 1012.7 +18.9
20 14.09 СВ 4 10 км н/о +17.2 +15.9 92 +17 +17 по сезону 1021.2 1013.2
19 14.09 С 4 7000 м н/о +16.4 +15.4 94 +16 +16 по сезону 1021.0 1013.0
21 14.09 СВ 3 15 км ясно +17.8 +15.8 88 +18 +18 по сезону 1021.2 1013.3
22 14.09 С 2 9000 м н/о +16.9 +15.4 91 +17 +17 по сезону 1021.3 1013.3
23 14.09 С 2 13 км н/о +17.1 +15.4 90 +18 +18 тепло 1021.0 1013.0
00 15.09 СЗ 2 15 км ясно +17.2 +15.5 90 +18 +18 тепло 1020.8 1012.8
02 15.09 В 1 12 км н/о +16.5 +14.9 90 +18 +18 тепло 1020.1 1012.1
01 15.09 С 2 12 км н/о +16.7 +15.1 90 +17 +17 тепло 1020.5 1012.5
03 15.09 СВ 1 15 км ясно +16.5 +15.0 91 +17 +17 по сезону 1019.5 1011.5
04 15.09 С 1 12 км н/о +16.3 +15.0 92 +17 +17 тепло 1019.3 1011.3
05 15.09 В 1 13 км н/о +16.2 +15.1 93 +18 +18 тепло 1019.4 1011.4
06 15.09 В 1 22 км 1/1 600 м
[Sc Ci fib]
+16.4 +14.9 91 +18 +18 тепло 1019.5 1011.5 +16.1
08 15.09 СВ 1 9000 м н/о +18.4 +15.5 83 +21 +21 комфорт 1020.0 1012.1
07 15.09 ЮВ 2 16 км н/о +16.6 +15.1 91 +17 +17 по сезону 1019.8 1011.8
09 15.09 СВ 1 22 км ясно +19.7 +15.8 78 +23 +28 комфорт 1020.1 1012.2
10 15.09 СВ 2 19 км н/о +21.8 +16.1 70 +26 +26 душно 1020.4 1012.6
11 15.09 СВ 2 19 км н/о +22.9 +16.2 66 +27 +27 душно 1020.2 1012.4
12 15.09 С 3 25 км 1/0
[Ci fib]
+22.7 +16.0 66 +27 +38 душно 1019.8 1012.0
14 15.09 С 3 20 км н/о +23.3 +16.6 66 +28 +28 душно 1018.8 1011.0
13 15.09 С 3 19 км н/о +22.4 +16.4 69 +27 +27 душно 1019.3 1011.5
15 15.09 С 3 19 км н/о +23.0 +16.3 66 +28 +28 душно 1018.5 1010.7
16 15.09 З 3 19 км н/о +22.0 +16.0 69 +26 +26 душно 1018.5 1010.7
17 15.09 З 3 18 км н/о +20.2 +15.6 75 +23 +23 комфорт 1019.0 1011.1
18 15.09 З 3 16 км н/о +19.2 +15.5 79 +21 +21 комфорт 1019.4 1011.5 +23.7
20 15.09 З 3 11 км н/о +16.7 +15.6 93 +16 +16 по сезону 1020.9 1012.9
19 15.09 ЮЗ 4 12 км н/о +17.2 +15.4 89 +17 +17 по сезону 1019.9 1011.9
21 15.09 З 3 15 км 9/9 200 м
[Sc]
+16.7 +15.7 94 +16 +16 по сезону 1021.3 1013.3
22 15.09 З 3 7000 м н/о +16.5 +15.7 95 +16 +16 по сезону 1021.4 1013.4
23 15.09 З 1 6000 м н/о +16.1 +15.5 96 +17 +17 по сезону 1021.5 1013.5
00 16.09 З 1 10 км 10/10 300 м
[St]
+16.2 +15.6 96 +17 +17 по сезону 1021.7 1013.7
02 16.09 СВ 1 6000 м н/о +16.3 +15.7 96 +18 +18 тепло 1021.4 1013.4
01 16.09 З 1 6000 м н/о +16.3 +15.7 96 +18 +18 тепло 1021.6 1013.6
03 16.09 ЮВ 1 10 км 10/10 200 м
[St]
+16.3 +15.7 96 +17 +17 тепло 1021.1 1013.1
04 16.09 В 1 4800 м н/о +16.4 +15.8 96 +18 +18 тепло 1021.3 1013.3
05 16.09 В 1 6000 м н/о +16.4 +15.8 96 +18 +18 тепло 1021.1 1013.1
06 16.09 ЮВ 2 8000 м дымка 9/9 200 м
[St]
+16.9 +16.3 96 +17 +17 тепло 1021.3 1013.3 +16.0
08 16.09 ЮВ 3 9000 м н/о +17.4 +16.3 93 +18 +18 по сезону 1021.7 1013.7
07 16.09 В 1 9000 м н/о +16.9 +16.3 96 +18 +18 по сезону 1021.7 1013.7
09 16.09 В 2 8000 м дымка 10/8 300 м
[Sc As op]
+18.2 +16.5 90 +19 +19 тепло 1022.3 1014.4
10 16.09 В 2 18 км н/о +19.2 +16.8 86 +22 +22 комфорт 1022.5 1014.6
11 16.09 В 1 19 км н/о +19.9 +16.9 83 +24 +24 комфорт 1022.5 1014.6
12 16.09 С 2 15 км 8/3 300 м
[Cu Sc Cc]
+21.4 +17.0 76 +25 +32 комфорт 1022.3 1014.4
14 16.09 С 4 20 км н/о +20.2 +15.8 76 +23 +23 комфорт 1021.2 1013.3
13 16.09 С 3 19 км н/о +21.0 +16.8 77 +25 +25 комфорт 1021.7 1013.8
15 16.09 С 3 20 км н/о +19.2 +16.2 83 +21 +21 комфорт 1020.9 1013.0
16 16.09 С 3 20 км н/о +19.0 +16.0 83 +21 +21 комфорт 1020.3 1012.4
17 16.09 СЗ 2 18 км н/о +17.8 +15.8 88 +18 +18 по сезону 1020.0 1012.1
18 16.09 СЗ 3 19 км н/о +17.7 +15.7 88 +18 +18 по сезону 1020.0 1012.1 +21.7
20 16.09 З 2 10 км н/о +16.5 +15.4 93 +17 +17 по сезону 1020.1 1012.1
19 16.09 СЗ 2 15 км н/о +17.0 +15.5 91 +17 +17 по сезону 1020.0 1012.0
21 16.09 ЮЗ 2 15 км 1/1 100 м
[St Ac lent]
+16.2 +15.2 94 +16 +16 по сезону 1019.8 1011.8
22 16.09 Ю 1 9000 м н/о +16.2 +15.2 94 +18 +18 тепло 1019.1 1011.1
23 16.09 В 1 8000 м н/о +16.1 +15.1 94 +17 +17 по сезону 1018.2 1010.2
00 17.09 СВ 1 15 км ясно +15.6 +14.6 94 +17 +17 по сезону 1017.9 1009.9
02 17.09 ЮВ 2 9000 м н/о +15.4 +14.4 94 +15 +15 по сезону 1016.2 1008.2
01 17.09 ЮВ 1 8000 м н/о +15.4 +14.6 95 +16 +16 по сезону 1017.0 1009.0
03 17.09 ЮВ 1 15 км ясно +15.5 +14.4 93 +16 +16 по сезону 1015.7 1007.7
04 17.09 Ю 2 10 км н/о +15.0 +14.0 94 +15 +15 по сезону 1015.3 1007.3
05 17.09 Ю 3 8000 м н/о +17.4 +15.2 87 +18 +18 тепло 1015.2 1007.3
06 17.09 ЮВ 1 15 км ясно +16.1 +14.5 90 +17 +17 тепло 1015.1 1007.2 +15.0
08 17.09 В 1 13 км н/о +17.5 +15.7 89 +19 +19 тепло 1015.6 1007.7
07 17.09 СЗ 1 12 км н/о +16.0 +14.7 92 +17 +17 по сезону 1015.5 1007.5
09 17.09 С 1 900 м туман местами ясно +18.4 +15.6 84 +20 +25 тепло 1015.9 1008.0
10 17.09 З 2 17 км н/о +17.7 +15.0 84 +18 +18 прохладно 1016.0 1008.1
11 17.09 В 1 19 км н/о +20.0 +15.4 75 +23 +23 комфорт 1015.3 1007.5
12 17.09 Ю 3 18 км 1/0
[Ci fib]
+24.3 +12.6 48 +26 +35 жарко 1014.5 1006.8
14 17.09 З 2 20 км н/о +21.4 +15.5 69 +25 +25 комфорт 1014.8 1007.0
13 17.09 З 3 20 км н/о +21.0 +15.5 71 +25 +25 комфорт 1014.8 1007.0
15 17.09 С 2 20 км н/о +23.7 +14.9 58 +27 +27 жарко 1014.2 1006.5
16 17.09 З 3 20 км н/о +22.8 +15.1 62 +27 +27 душно 1014.2 1006.4
17 17.09 З 5 20 км н/о +22.3 +16.8 71 +27 +27 душно 1014.2 1006.4
18 17.09 З 5 20 км н/о +21.1 +17.3 79 +25 +25 комфорт 1014.5 1006.7 +26.9
20 17.09 ЮЗ 4 20 км н/о +21.3 +17.5 79 +25 +25 комфорт 1015.1 1007.3
19 17.09 ЮЗ 4 20 км н/о +21.2 +17.4 79 +25 +25 комфорт 1014.6 1006.8
21 17.09 З 3 18 км 9/9 300 м
[Sc]
+20.4 +17.2 82 +24 +24 комфорт 1015.5 1007.7
22 17.09 ЮЗ 2 15 км в посл. час морось н/о +20.3 +17.3 83 +24 +24 комфорт 1015.8 1008.0 0.0
23 17.09 ЮЗ 2 20 км н/о +20.1 +17.1 83 +24 +24 комфорт 1016.0 1008.2
00 18.09 ЮЗ 3 18 км 9/9 300 м
[Sc]
+19.8 +17.0 84 +23 +23 комфорт 1015.9 1008.1 0.0
02 18.09 ЮЗ 1 20 км н/о +19.6 +17.0 85 +23 +23 комфорт 1015.8 1008.0
01 18.09 ЮЗ 3 20 км н/о +19.6 +17.0 85 +22 +22 комфорт 1016.1 1008.2
03 18.09 Ю 1 18 км 9/9 300 м
[Sc]
+19.4 +17.2 87 +23 +23 комфорт 1015.8 1007.9 0.0
04 18.09 Ю 2 20 км н/о +19.5 +16.7 84 +22 +22 комфорт 1015.7 1007.8
05 18.09 ЮВ 1 20 км н/о +19.4 +17.0 86 +23 +23 комфорт 1015.8 1007.9
06 18.09 ЮЗ 2 15 км 8/8 300 м
[Cu Sc]
+19.1 +15.8 81 +21 +21 комфорт 1016.2 1008.3 +19.1
08 18.09 З 1 20 км н/о +20.3 +15.7 75 +25 +25 комфорт 1017.1 1009.3
07 18.09 ЮВ 2 17 км н/о +18.2 +15.8 86 +19 +19 тепло 1016.6 1008.7
09 18.09 ЮЗ 4 20 км 4/3 600 м
[Cu Sc Ac und Ci fib]
+21.7 +15.1 66 +25 +27 комфорт 1017.7 1009.9
10 18.09 З 3 19 км н/о +20.8 +16.0 74 +25 +25 комфорт 1018.0 1010.2
11 18.09 З 5 19 км н/о +21.4 +15.7 70 +25 +25 комфорт 1018.3 1010.5
12 18.09 З 5 18 км 9/8 600 м
[Cu Sc Ac As Ci fib]
+21.6 +14.7 65 +25 +26 комфорт 1018.3 1010.5
14 18.09 З 6 19 км н/о +22.5 +13.8 58 +26 +26 жарко 1017.9 1010.1
13 18.09 З 5 20 км н/о +22.6 +13.6 57 +26 +26 жарко 1018.2 1010.4
15 18.09 З 5 19 км н/о +21.5 +13.7 61 +24 +24 комфорт 1017.9 1010.1
16 18.09 З 6 20 км н/о +21.3 +13.2 60 +24 +24 комфорт 1018.0 1010.2
17 18.09 З 5 19 км н/о +20.4 +13.6 65 +23 +23 комфорт 1018.1 1010.2
18 18.09 З 4 18 км н/о +20.1 +13.8 67 +22 +22 комфорт 1018.6 1010.7 +23.6
20 18.09 З 4 17 км н/о +19.2 +13.6 70 +21 +21 комфорт 1019.8 1011.9
19 18.09 З 4 19 км н/о +19.3 +13.2 68 +21 +21 комфорт 1019.2 1011.3
21 18.09 Ю 2 18 км ясно +19.1 +13.7 71 +21 +21 комфорт 1020.2 1012.3
22 18.09 ЮВ 2 15 км н/о +18.3 +13.8 75 +19 +19 тепло 1020.1 1012.2
23 18.09 Ю 2 15 км н/о +18.0 +13.7 76 +19 +19 тепло 1020.4 1012.5
00 19.09 Ю 2 18 км 3/0
[Ac As]
+17.9 +13.8 77 +18 +18 тепло 1020.3 1012.4
02 19.09 ЮВ 1 14 км н/о +16.6 +13.3 81 +17 +17 тепло 1020.4 1012.4
01 19.09 ЮВ 1 13 км н/о +17.1 +13.8 81 +18 +18 тепло 1020.6 1012.6
03 19.09 Ю 3 18 км ясно +16.4 +13.1 81 +16 +16 по сезону 1020.2 1012.2
04 19.09 Ю 3 15 км н/о +16.1 +13.0 82 +16 +16 тепло 1020.1 1012.1
05 19.09 ЮВ 2 14 км н/о +15.6 +12.7 83 +15 +15 по сезону 1020.2 1012.2
06 19.09 ЮВ 2 25 км 1/0
[Ac lent Ci fib]
+15.3 +12.8 85 +15 +15 по сезону 1020.7 1012.7 +15.3
08 19.09 Ю 4 17 км н/о +18.0 +13.9 77 +18 +18 по сезону 1021.6 1013.7
07 19.09 В 1 13 км н/о +15.3 +13.0 86 +17 +17 по сезону 1021.2 1013.2
09 19.09 ЮВ 3 25 км 3/3 600 м
[Sc]
+20.7 +14.8 69 +24 +27 комфорт 1021.9 1014.0
10 19.09 СВ 2 20 км н/о +21.4 +15.0 67 +25 +25 комфорт 1022.4 1014.5
11 19.09 СВ 2 19 км н/о +21.6 +15.7 69 +25 +25 комфорт 1022.4 1014.5
12 19.09 С 2 25 км 3/3 600 м
[Sc]
+23.1 +16.2 65 +28 +36 душно 1021.9 1014.1
14 19.09 З 5 20 км н/о +22.1 +17.0 73 +27 +27 душно 1021.9 1014.1
13 19.09 З 3 20 км н/о +23.6 +16.9 66 +27 +27 жарко 1021.8 1014.0
15 19.09 З 5 20 км н/о +21.6 +17.0 75 +26 +26 душно 1021.4 1013.6
16 19.09 З 4 19 км н/о +21.0 +17.0 78 +25 +25 комфорт 1021.5 1013.6
17 19.09 З 5 16 км н/о +20.2 +16.6 80 +23 +23 комфорт 1021.7 1013.8
18 19.09 З 5 15 км н/о +19.4 +16.4 83 +21 +21 комфорт 1022.0 1014.1 +23.7
20 19.09 СЗ 1 11 км н/о +17.7 +16.4 92 +19 +19 тепло 1022.7 1014.7
19 19.09 З 3 12 км н/о +18.5 +16.3 87 +20 +20 тепло 1022.1 1014.2
21 19.09 В 1 700 м туман 1/1 100 м
[St]
+16.9 +15.9 94 +18 +18 по сезону 1023.0 1015.0
22 19.09 ЮВ 2 7000 м н/о +17.1 +16.3 95 +17 +17 тепло 1022.9 1014.9
23 19.09 ЮВ 3 9000 м н/о +17.7 +16.4 92 +18 +18 тепло 1022.6 1014.6
00 20.09 ЮВ 1 10 км {туман} 1/1 200 м
[St]
+17.5 +16.0 91 +19 +19 тепло 1022.2 1014.2
02 20.09 ЮВ 1 9000 м н/о +16.7 +15.4 92 +18 +18 тепло 1021.1 1013.1
01 20.09 Ю 1 10 км н/о +17.1 +15.6 91 +19 +19 тепло 1021.6 1013.6
03 20.09 С 1 10 км ясно +16.0 +14.9 93 +17 +17 тепло 1020.9 1012.9
04 20.09 С 1 н/о н/о +15.5 +14.5 94 +17 +17 тепло 1020.6 1012.6
05 20.09 штиль 0 6000 м н/о +15.0 +14.0 94 +15 +15 по сезону 1020.5 1012.5
06 20.09 В 1 1600 м туман на расстоянии 1/1 200 м
[St Ci fib]
+14.7 +13.9 95 +16 +16 по сезону 1020.7 1012.7 +14.7
08 20.09 СВ 1 9000 м н/о +16.4 +14.8 90 +18 +18 по сезону 1020.8 1012.8
07 20.09 В 1 2100 м н/о +14.5 +14.2 98 +16 +16 по сезону 1020.6 1012.6
09 20.09 СВ 1 2000 м дымка {туман} 3/0
[Ci fib]
+17.7 +14.8 83 +19 +23 тепло 1020.9 1013.0
10 20.09 СВ 2 14 км н/о +18.9 +15.0 78 +21 +21 комфорт 1021.0 1013.1
11 20.09 В 2 19 км н/о +20.6 +15.2 71 +24 +24 комфорт 1020.6 1012.7
12 20.09 СЗ 3 20 км {туман} 6/1 600 м
[Sc Ci sp]
+21.8 +16.1 70 +26 +34 душно 1019.8 1012.0
14 20.09 З 5 19 км н/о +22.7 +16.0 66 +27 +27 душно 1018.9 1011.1
13 20.09 СВ 2 18 км н/о +23.4 +16.2 64 +28 +28 душно 1019.1 1011.3
15 20.09 З 5 19 км н/о +22.1 +15.9 68 +26 +26 душно 1018.8 1011.0
16 20.09 З 4 19 км н/о +23.1 +15.7 63 +27 +27 душно 1018.4 1010.6
17 20.09 ЮЗ 6 20 км н/о +23.4 +14.7 58 +27 +27 душно 1018.8 1011.0
18 20.09 ЮЗ 5 19 км н/о +22.1 +15.7 67 +26 +26 душно 1018.7 1010.9 +23.7
20 20.09 Ю 4 18 км н/о +20.6 +16.2 76 +24 +24 комфорт 1019.3 1011.4
19 20.09 Ю 3 20 км н/о +21.2 +15.7 71 +24 +24 комфорт 1018.8 1011.0
21 20.09 Ю 3 18 км 5/1 300 м
[Sc Ac trans]
+20.3 +16.3 78 +24 +24 комфорт 1019.4 1011.5

 

Местоположение метеостанции La Coruna (Испания): широта 43.37 долгота -8.42 высота над уровнем моря 67 м.

В архиве по умолчанию представлена погода в La Coruna за последнюю неделю. Архивные данные за месяц целиком и за предыдущие месяцы, начиная с января 2011 года, Вы можете получить, выбрав интересующий диапазон дат из раскрывающегося списка и нажав кнопку "Ввод!".


*Определитесь, кто Вы:
робот инопланетянин человек

Внимание! Время в таблицах - всемирное. Для получения местного времени необходимо прибавить поправку, которая в La Coruna равна 1 ч.

Смотрите также архив погоды в соседних городах и на ближайших метеорологических станциях:

Погода в Santiago (Испания) (52 км)
Погода в Lugo (Испания) (83 км)
Погода в Pontevedra (Испания) (106 км)
Погода в Orense (Испания) (124 км)
Погода в Vigo (Испания) (128 км)
Погода в Ponferrada (Испания) (177 км)
Погода в Aviles (Испания) (194 км)
Погода в Viana Do Castelo (Португалия) (196 км)
Погода в Oviedo (Испания) (206 км)
Погода в Gijon Musel (Испания) (221 км)

Пояснения к столбцам:

Ветер - указаны скорость ветра в м/с - средняя за 10 мин, порывы в срок и между сроками (в фигурных скобках) и направление, откуда дует ветер: С - северный, СВ - северо-восточный, В - восточный, ЮВ - юго-восточный, Ю - южный, ЮЗ - юго-западный, З - западный, СЗ - северо-западный.
Видимость - горизонтальная дальность видимости в метрах или километрах. При видимости от 1 до 10 км при отсутствии осадков обычно наблюдается дымка, при ухудшении видимости до 1 км и менее - туман. В сухую погоду видимость может ухудшаться дымом, пылью или мглою.
Явления - указаны атмосферные явления, наблюдавшиеся в срок или в последний час перед сроком; фигурными скобками обозначены явления, наблюдавшиеся между сроками (за 1-3 часа до срока); квадратными скобками обозначены град или гололедные отложения с указанием их диаметра в мм.
Облачность - указаны через наклонную черту общая и нижняя облачность в баллах и высота нижней границы облаков в метрах; квадратными скобками обозначены формы облаков: Ci - перистые, Cs - перисто-слоистые, Cc - перисто-кучевые, Ac - высококучевые, As - высокослоистые, Sc - слоисто-кучевые, Ns - слоисто-дождевые, Cu - кучевые, Cb - кучево-дождевые. Подробнее классификацию облаков см. в Атласе облаков (PDF).
T - Температура воздуха - температура, измеренная на высоте 2 м над землей.
Td - Температура точки росы - температура, при понижении до которой содержащийся в воздухе водяной пар достигнет насыщения.
f - Относительная влажность воздуха - влажноcть воздуха, измеренная на высоте 2 м над землей.
Te - Эффективная температура - температура, которую ощущает одетый по сезону человек в тени. Характеристика душности погоды. При расчете учитывается влияние влажности воздуха и скорости ветра на теплоощущения человека.
Tes - Эффективная температура на солнце - температура, которую ощущает человек, с поправкой на солнечный нагрев. Характеристика знойности погоды. Зависит от высоты солнца над горизонтом, облачности и скорости ветра. Ночью, в пасмурную погоду, а также при ветре 12 м/с и более поправка равна нулю.
P - Атмосферное давление - приведенное к уровню моря атмосферное давление.
Po - Атмосферное давление - измеренное на уровне метеостанции атмосферное давление.
Tmin - Минимальная температура - минимум температуры воздуха на высоте 2 м над землей.
Tmax - Максимальная температура - максимум температуры воздуха на высоте 2 м над землей.
R - Количество осадков - Количество выпавших осадков за период времени, мм. При наведении курсора мыши на число - период времени, за который выпало указанное количество осадков.
R24 - Количество осадков - Количество выпавших осадков за 24 часа, мм.
S - Снежный покров - Высота снежного покрова, см. При наведении курсора мыши на число - состояние снежного покрова и степень покрытия местности в баллах.